ROMMA est une association bénévole à but non lucratif. Votre soutien est indispensable : ADHERER à ROMMA ou FAIRE un DON

Chambon - (38, Isère)

Oisans (2460 m)   Longitude: 06° 10' 42" E   Latitude: 45° 01' 32" N Station partenaire n°803
 

Détail journalier du     <<     >>

Température Humidité Vent Dir Rafale Dir. rafale Neige 1 Neige 2
Heure (°C) (%) (km/h) (km/h) (cm) (cm)
01:00 -3.19911NNE38NNE0102
02:00 -2.69920NNE45ENE0102
03:00 -2.79918NNE47NE0100
04:00 -2.79915NNE33NE0100
05:00 -2.89923NNE54NNE099
06:00 -2.89924NNE49NNE097
07:00 -2.89822NE48NE097
08:00 -2.99826NE49NE096
09:00 -2.99729NE57NE096
10:00 -2.89727NNE53NE096
11:00 -2.69723NNE40NE096
12:00 -2.49621NNE40NNE096
13:00 -2.49819NNE42NNE096
14:00 -2.39911N27NNE095
15:00 -2.0973NE20NE095
16:00 -2.4983NE13NE095
17:00 -2.3995NE9NE095
18:00 -2.1985NNE10NNE095
19:00 -1.7958NNE15NNE095
20:00 -1.4926N14N095
21:00 -0.8874N9N095
22:00 -1.0853N10N095
23:00 -0.8853NO13NO095
minuit -0.9888N23N094

Graphique du 24-11-2019

 

Serveur OMMA